COSMOS 1900 DEB, 43499

Orbit data source: Space-Track

COSMOS 1900 DEB, 43499 is space debris in LEO originally from a launch on Sat, 12 Dec 1987 UTC launched from the Tyuratam Missile And Space Complex (TTMTR). Debris objects in space refer to the collection of defunct objects orbiting the Earth. Examples of debris include non-operational satellites, rocket bodies, and fragments generated from explosions, collisions, or faulty payload assembly.

Loading next visibility...
Identifier
43499, 1987-101D
Orbit
LEO
Country
Flag of CISCIS
Related business
Manufacturer
Unknown
Mission
Spacecraft
Bus & Motor
Unknown
Mass
Unknown
Launch date (UTC)
1987-12-12 (39 years ago)
Launch vehicle
Unknown
Launch site
Tyuratam Missile And Space Complex (TTMTR)
Object type
Payload
Rocket body
Debris
Shape & HBR
Unknown shape, 0.1 m
Radar Cross Section
Small (<0.1 m²)

Expand to show TLE details & history
Last TLE update: 4 days ago

TLE from 4 days ago
0 COSMOS 1900 DEB
1 43499U 87101D   26169.75988585  .00000494  00000-0  12391-3 0  9991
2 43499  66.0833 344.0093 0023173  88.1299 272.2463 14.60208363594976
Epoch: 2026-06-18T18:14Z
TLE epoch observation values (Epoch: 2026-06-18T18:14:14.137Z)
Latitude
-0.00002°
Longitude
163.45179°
Altitude
693.984 km
Speed
7.51 km/s
True Right ascension
22h 56m 02s
True Declination
0° 00' 00"
Sunlit
Object was in daylight at epoch
Visualization orbit readout
Latitude
Unknown
Longitude
Unknown
Altitude
Unknown
Speed
Unknown
Apparent Right ascension
Unknown
Apparent Declination
Unknown
Sunlit
N/A
Visualization observer readout
Local Sidereal Time
23:18:35
Azimuth
Unknown
Elevation
Unknown
Doppler factor
Unknown
Orbital elements
Apogee altitude
707.308 km
Perigee altitude
674.546 km
Semi-major axis
7,069.064 km
Eccentricity
0.00232
Inclination
66.0833°
RAAN
344.0093°
Arg. of periapsis
88.1299°
True anomaly
271.98093°
Mean anomaly
272.2463°
Eccentric anomaly
272.11362°
Mean motion
3.65174 °/min
Orbital period
98.58 mins
BSTAR
0.00012391
Loading maneuver chart data...
Computing Atmospheric mass density...
Loading historical data...
Loading historical data...
Loading historical data...
Loading historical data...
Loading historical data...
Loading historical data...
Loading historical data...

Documentation

Showing up to 5 results
|